,,,PA_Meas_PMT16A,,PR_Meas_QMR101_102,,RH_Meas_QMH101,,SR_Meas_QMS101,,TA_Meas_QMH101,,GenWind,,GenWind,
date,time,status,PA,status,PR,status,RH,status,SR,status,TA,status,DirAvg,status,SpdAvg,
2011-03-21, 00:00:04,VALID,1002.74,VALID,0,INVALID,163.731,VALID,0,VALID,24.0521,VALID,9,VALID,0,
2011-03-21, 00:01:04,VALID,1002.76,VALID,0,INVALID,163.739,VALID,0.100563,VALID,24.0503,VALID,12,VALID,0.452344,
2011-03-21, 00:02:04,VALID,1002.74,VALID,0,INVALID,163.716,VALID,0,VALID,24.0521,VALID,13,VALID,0.249609,
2011-03-21, 00:03:04,VALID,1002.76,VALID,0,INVALID,163.731,VALID,0,VALID,24.0539,VALID,13,VALID,0.0914062,
2011-03-21, 00:04:04,VALID,1002.76,VALID,0,INVALID,163.716,VALID,0,VALID,24.0132,VALID,13,VALID,0,
2011-03-21, 00:05:04,VALID,1002.75,VALID,0,INVALID,163.746,VALID,0,VALID,24.0114,VALID,13,VALID,0,
2011-03-21, 00:06:04,VALID,1002.75,VALID,0,INVALID,163.708,VALID,0,VALID,24.0326,VALID,13,VALID,0,
2011-03-21, 00:07:04,VALID,1002.73,VALID,0,INVALID,163.708,VALID,0,VALID,24.0521,VALID,13,VALID,0,
2011-03-21, 00:08:04,VALID,1002.73,VALID,0,INVALID,163.716,VALID,0,VALID,24.0716,VALID,13,VALID,0,
2011-03-21, 00:09:04,VALID,1002.72,VALID,0,INVALID,163.723,VALID,0,VALID,24.091,VALID,13,VALID,0,
2011-03-21, 00:10:04,VALID,1002.74,VALID,0,INVALID,163.701,VALID,0,VALID,24.091,VALID,13,VALID,0,
2011-03-21, 00:11:04,VALID,1002.74,VALID,0,INVALID,163.723,VALID,0,VALID,24.1318,VALID,13,VALID,0,
2011-03-21, 00:12:04,VALID,1002.76,VALID,0,INVALID,163.723,VALID,0,VALID,24.13,VALID,13,VALID,0,
2011-03-21, 00:13:04,VALID,1002.78,VALID,0,INVALID,163.922,VALID,0,VALID,24.1902,VALID,13,VALID,0,
2011-03-21, 00:14:04,VALID,1002.75,VALID,0,INVALID,163.716,VALID,0,VALID,24.1902,VALID,13,VALID,0.277734,
2011-03-21, 00:15:04,VALID,1002.75,VALID,0,INVALID,163.708,VALID,0,VALID,24.1884,VALID,13,VALID,0.482031,
2011-03-21, 00:16:04,VALID,1002.77,VALID,0,INVALID,163.723,VALID,0.100563,VALID,24.1671,VALID,13,VALID,0.316797,
2011-03-21, 00:17:04,VALID,1002.77,VALID,0,INVALID,163.708,VALID,0,VALID,24.2097,VALID,13,VALID,0.00195313,
2011-03-21, 00:18:04,VALID,1002.75,VALID,0,INVALID,163.685,VALID,0,VALID,24.2078,VALID,13,VALID,0,
2011-03-21, 00:19:04,VALID,1002.72,VALID,0,INVALID,163.708,VALID,0,VALID,24.2291,VALID,13,VALID,0,
2011-03-21, 00:20:04,VALID,1002.68,VALID,0,INVALID,163.701,VALID,0,VALID,24.2486,VALID,13,VALID,0.130469,
2011-03-21, 00:21:04,VALID,1002.7,VALID,0,INVALID,163.701,VALID,0,VALID,24.2875,VALID,13,VALID,0.183203,
2011-03-21, 00:22:04,VALID,1002.67,VALID,0,INVALID,163.716,VALID,0,VALID,24.2857,VALID,13,VALID,0.152734,
2011-03-21, 00:23:04,VALID,1002.63,VALID,0,INVALID,163.678,VALID,0,VALID,24.3052,VALID,13,VALID,0.362891,
2011-03-21, 00:24:04,VALID,1002.6,VALID,0,INVALID,163.716,VALID,0,VALID,24.3636,VALID,116,VALID,0.260938,
2011-03-21, 00:25:04,VALID,1002.55,VALID,0,INVALID,163.685,VALID,0,VALID,24.4043,VALID,116,VALID,0.206641,
2011-03-21, 00:26:04,VALID,1002.53,VALID,0,INVALID,163.708,VALID,0,VALID,24.422,VALID,116,VALID,0,
2011-03-21, 00:27:04,VALID,1002.52,VALID,0,INVALID,163.685,VALID,0,VALID,24.422,VALID,116,VALID,0.0484375,
2011-03-21, 00:28:04,VALID,1002.47,VALID,0,INVALID,163.693,VALID,0,VALID,24.422,VALID,116,VALID,0,
2011-03-21, 00:29:04,VALID,1002.5,VALID,0,INVALID,163.708,VALID,0,VALID,24.4414,VALID,116,VALID,0.00429688,
2011-03-21, 00:30:04,VALID,1002.48,VALID,0,INVALID,163.693,VALID,0,VALID,24.422,VALID,116,VALID,0.267578,
2011-03-21, 00:31:04,VALID,1002.48,VALID,0,INVALID,163.723,VALID,0,VALID,24.422,VALID,116,VALID,0.335547,
2011-03-21, 00:32:04,VALID,1002.5,VALID,0,INVALID,163.693,VALID,0,VALID,24.4025,VALID,91,VALID,0.524219,
2011-03-21, 00:33:04,VALID,1002.48,VALID,0,INVALID,163.701,VALID,0,VALID,24.4043,VALID,67,VALID,0.584375,
2011-03-21, 00:34:04,VALID,1002.52,VALID,0,INVALID,163.701,VALID,0,VALID,24.3441,VALID,56,VALID,0.483984,
2011-03-21, 00:35:04,VALID,1002.49,VALID,0,INVALID,163.708,VALID,0,VALID,24.3441,VALID,54,VALID,0.369141,
2011-03-21, 00:36:04,VALID,1002.52,VALID,0,INVALID,163.655,VALID,0,VALID,24.3636,VALID,54,VALID,0.530469,
2011-03-21, 00:37:04,VALID,1002.49,VALID,0,INVALID,163.693,VALID,0,VALID,24.3849,VALID,54,VALID,0.579297,
2011-03-21, 00:38:04,VALID,1002.46,VALID,0,INVALID,163.678,VALID,0,VALID,24.3636,VALID,54,VALID,0.483203,
2011-03-21, 00:39:04,VALID,1002.45,VALID,0,INVALID,163.67,VALID,0.100563,VALID,24.4043,VALID,54,VALID,0.311328,
2011-03-21, 00:40:04,VALID,1002.48,VALID,0,INVALID,163.716,VALID,0.100563,VALID,24.383,VALID,54,VALID,0.260938,
2011-03-21, 00:41:04,VALID,1002.49,VALID,0,INVALID,163.678,VALID,0.100563,VALID,24.422,VALID,54,VALID,0.244531,
2011-03-21, 00:42:04,VALID,1002.48,VALID,0,INVALID,163.693,VALID,0.100563,VALID,24.4609,VALID,54,VALID,0.130078,
2011-03-21, 00:43:04,VALID,1002.5,VALID,0,INVALID,163.701,VALID,0.100563,VALID,24.4609,VALID,54,VALID,0,
2011-03-21, 00:44:04,VALID,1002.48,VALID,0,INVALID,163.701,VALID,0,VALID,24.4414,VALID,54,VALID,0.00273437,
2011-03-21, 00:45:04,VALID,1002.48,VALID,0,INVALID,163.662,VALID,0,VALID,24.4609,VALID,54,VALID,0,
2011-03-21, 00:46:04,VALID,1002.49,VALID,0,INVALID,163.701,VALID,0.100563,VALID,24.4609,VALID,54,VALID,0,
2011-03-21, 00:47:04,VALID,1002.46,VALID,0,INVALID,163.678,VALID,0.100563,VALID,24.5017,VALID,54,VALID,0.0371094,
2011-03-21, 00:48:04,VALID,1002.4,VALID,0,INVALID,163.67,VALID,0.100563,VALID,24.4804,VALID,54,VALID,0.270312,
2011-03-21, 00:49:04,VALID,1002.4,VALID,0,INVALID,163.685,VALID,0.100563,VALID,24.4804,VALID,54,VALID,0.0199219,
2011-03-21, 00:50:04,VALID,1002.39,VALID,0,INVALID,163.685,VALID,0.100563,VALID,24.5193,VALID,54,VALID,0,
2011-03-21, 00:51:04,VALID,1002.43,VALID,0,INVALID,163.678,VALID,0,VALID,24.5193,VALID,94,VALID,0.520703,
2011-03-21, 00:52:04,VALID,1002.45,VALID,0,INVALID,163.678,VALID,0,VALID,24.5582,VALID,155,VALID,1.05,
2011-03-21, 00:53:04,VALID,1002.46,VALID,0.5,INVALID,163.678,VALID,0,VALID,24.5777,VALID,194,VALID,1.26094,
2011-03-21, 00:54:04,VALID,1002.45,VALID,0,INVALID,163.685,VALID,0,VALID,24.6166,VALID,159,VALID,3.70742,
2011-03-21, 00:55:04,VALID,1002.37,VALID,0.5,INVALID,163.655,VALID,0,VALID,24.5017,VALID,218,VALID,2.42617,
2011-03-21, 00:56:04,VALID,1002.37,VALID,0.5,INVALID,163.685,VALID,0,VALID,24.4414,VALID,182,VALID,2.51133,
2011-03-21, 00:57:04,VALID,1002.45,VALID,0.5,INVALID,163.716,VALID,0,VALID,24.4414,VALID,129,VALID,1.60117,
2011-03-21, 00:58:04,VALID,1002.37,VALID,1,INVALID,163.685,VALID,0.100563,VALID,24.4804,VALID,171,VALID,2.56758,
2011-03-21, 00:59:04,VALID,1002.54,VALID,0.5,INVALID,163.678,VALID,0,VALID,24.4998,VALID,147,VALID,4.15742,
2011-03-21, 01:00:04,VALID,1002.68,VALID,1.5,INVALID,163.685,VALID,0,VALID,24.4998,VALID,118,VALID,3.77344,
2011-03-21, 01:01:04,VALID,1002.72,VALID,1.5,INVALID,163.678,VALID,0.100563,VALID,24.4609,VALID,113,VALID,3.27539,
2011-03-21, 01:02:04,VALID,1002.84,VALID,1.5,INVALID,163.701,VALID,0,VALID,24.4414,VALID,103,VALID,2.14258,
2011-03-21, 01:03:04,VALID,1002.89,VALID,1.5,INVALID,163.67,VALID,0,VALID,24.4025,VALID,114,VALID,3.56172,
2011-03-21, 01:04:04,VALID,1002.97,VALID,1.5,INVALID,163.693,VALID,0,VALID,24.383,VALID,133,VALID,2.25703,
2011-03-21, 01:05:04,VALID,1003.01,VALID,2,INVALID,163.708,VALID,0.100563,VALID,24.3636,VALID,98,VALID,1.65742,
2011-03-21, 01:06:04,VALID,1002.88,VALID,2,INVALID,163.678,VALID,0.100563,VALID,24.3246,VALID,108,VALID,1.33672,
2011-03-21, 01:07:04,VALID,1002.94,VALID,1.5,INVALID,163.701,VALID,0,VALID,24.3052,VALID,129,VALID,1.88555,
2011-03-21, 01:08:04,VALID,1003.06,VALID,0.5,INVALID,163.67,VALID,0,VALID,24.2857,VALID,123,VALID,2.10273,
2011-03-21, 01:09:05,VALID,1003.01,VALID,0.5,INVALID,163.693,VALID,0,VALID,24.2857,VALID,76,VALID,1.08672,
2011-03-21, 01:10:05,VALID,1002.9,VALID,1.5,INVALID,163.701,VALID,0,VALID,24.2662,VALID,111,VALID,1.00195,
2011-03-21, 01:11:05,VALID,1002.89,VALID,0.5,INVALID,163.708,VALID,0,VALID,24.1884,VALID,112,VALID,1.75586,
2011-03-21, 01:12:05,VALID,1002.84,VALID,0.5,INVALID,163.708,VALID,0.100563,VALID,24.0892,VALID,139,VALID,1.26602,
2011-03-21, 01:13:05,VALID,1002.84,VALID,0.5,INVALID,163.716,VALID,0,VALID,24.0521,VALID,123,VALID,1.51094,
2011-03-21, 01:14:05,VALID,1002.83,VALID,0,INVALID,163.723,VALID,0,VALID,24.0716,VALID,120,VALID,1.28516,
2011-03-21, 01:15:05,VALID,1002.79,VALID,0.5,INVALID,163.723,VALID,0,VALID,24.0929,VALID,119,VALID,2.15117,
2011-03-21, 01:16:05,VALID,1002.72,VALID,0.5,INVALID,163.723,VALID,0,VALID,24.1123,VALID,145,VALID,1.85859,
2011-03-21, 01:17:05,VALID,1002.7,VALID,0,INVALID,163.701,VALID,0.100563,VALID,24.1105,VALID,132,VALID,0.964063,
2011-03-21, 01:18:05,VALID,1002.68,VALID,0.5,INVALID,163.731,VALID,0,VALID,24.1318,VALID,124,VALID,1.58789,
2011-03-21, 01:19:05,VALID,1002.63,VALID,0,INVALID,163.716,VALID,0,VALID,24.091,VALID,128,VALID,1.57969,
2011-03-21, 01:20:05,VALID,1002.65,VALID,0,INVALID,163.708,VALID,0,VALID,24.0716,VALID,140,VALID,2.38242,
2011-03-21, 01:21:05,VALID,1002.6,VALID,0.5,INVALID,163.731,VALID,0,VALID,24.0521,VALID,140,VALID,1.54336,
2011-03-21, 01:22:05,VALID,1002.62,VALID,0,INVALID,163.723,VALID,0,VALID,24.0734,VALID,135,VALID,1.18828,
2011-03-21, 01:23:05,VALID,1002.63,VALID,0,INVALID,163.723,VALID,0,VALID,24.0132,VALID,118,VALID,2.4332,
2011-03-21, 01:24:05,VALID,1002.63,VALID,0,INVALID,163.723,VALID,0,VALID,23.9937,VALID,114,VALID,2.40391,
2011-03-21, 01:25:05,VALID,1002.68,VALID,0,INVALID,163.716,VALID,0.100563,VALID,23.9761,VALID,120,VALID,2.19492,
2011-03-21, 01:26:05,VALID,1002.68,VALID,0,INVALID,163.731,VALID,0,VALID,23.914,VALID,132,VALID,1.66016,
2011-03-21, 01:27:05,VALID,1002.7,VALID,0,INVALID,163.723,VALID,0.100563,VALID,23.9159,VALID,109,VALID,0.877344,
2011-03-21, 01:28:05,VALID,1002.73,VALID,0,INVALID,163.716,VALID,0,VALID,23.9177,VALID,112,VALID,1.28086,
2011-03-21, 01:29:05,VALID,1002.72,VALID,0.5,INVALID,163.716,VALID,0,VALID,23.9159,VALID,109,VALID,0.778906,
2011-03-21, 01:30:05,VALID,1002.74,VALID,0,INVALID,163.739,VALID,0,VALID,23.8964,VALID,137,VALID,1.60508,
2011-03-21, 01:31:05,VALID,1002.78,VALID,0,INVALID,163.716,VALID,0,VALID,23.8575,VALID,113,VALID,1.16836,
2011-03-21, 01:32:05,VALID,1002.78,VALID,0,INVALID,163.739,VALID,0,VALID,23.8185,VALID,114,VALID,0.604688,
2011-03-21, 01:33:05,VALID,1002.79,VALID,0,INVALID,163.754,VALID,0,VALID,23.8185,VALID,113,VALID,1.10195,
2011-03-21, 01:34:05,VALID,1002.8,VALID,0,INVALID,163.739,VALID,0,VALID,23.8185,VALID,112,VALID,1.65352,
2011-03-21, 01:35:05,VALID,1002.79,VALID,0,INVALID,163.754,VALID,0,VALID,23.8185,VALID,86,VALID,1.37227,
2011-03-21, 01:36:05,VALID,1002.78,VALID,0.5,INVALID,163.731,VALID,0,VALID,23.8398,VALID,117,VALID,1.06758,
2011-03-21, 01:37:05,VALID,1002.8,VALID,0,INVALID,163.723,VALID,0,VALID,23.8185,VALID,93,VALID,0.800391,
2011-03-21, 01:38:05,VALID,1002.81,VALID,0,INVALID,163.731,VALID,0,VALID,23.7601,VALID,59,VALID,0.623828,
2011-03-21, 01:39:05,VALID,1002.78,VALID,0,INVALID,163.762,VALID,0,VALID,23.6628,VALID,47,VALID,0.348047,
2011-03-21, 01:40:05,VALID,1002.75,VALID,0.5,INVALID,163.723,VALID,0,VALID,23.6026,VALID,80,VALID,0.910547,
2011-03-21, 01:41:05,VALID,1002.75,VALID,0,INVALID,163.739,VALID,0,VALID,23.5655,VALID,76,VALID,0.489062,
2011-03-21, 01:42:05,VALID,1002.72,VALID,0,INVALID,163.731,VALID,0,VALID,23.5673,VALID,23,VALID,0.6375,
2011-03-21, 01:43:05,VALID,1002.68,VALID,0,INVALID,163.731,VALID,0,VALID,23.5478,VALID,93,VALID,1.1375,
2011-03-21, 01:44:05,VALID,1002.65,VALID,0,INVALID,163.777,VALID,0,VALID,23.4859,VALID,88,VALID,0.430469,
2011-03-21, 01:45:05,VALID,1002.64,VALID,0.5,INVALID,163.784,VALID,0,VALID,23.4894,VALID,103,VALID,0.782031,
2011-03-21, 01:46:05,VALID,1002.59,VALID,0,INVALID,163.777,VALID,0,VALID,23.4487,VALID,91,VALID,0.524609,
2011-03-21, 01:47:05,VALID,1002.56,VALID,0,INVALID,163.746,VALID,0,VALID,23.47,VALID,117,VALID,1.33711,
2011-03-21, 01:48:05,VALID,1002.51,VALID,0,INVALID,163.762,VALID,0,VALID,23.4682,VALID,139,VALID,1.22578,
2011-03-21, 01:49:05,VALID,1002.47,VALID,0,INVALID,163.777,VALID,0,VALID,23.4682,VALID,140,VALID,1.02891,
2011-03-21, 01:50:05,VALID,1002.47,VALID,0,INVALID,163.754,VALID,0,VALID,23.4877,VALID,140,VALID,0.880859,
2011-03-21, 01:51:05,VALID,1002.45,VALID,0,INVALID,163.784,VALID,0,VALID,23.5284,VALID,139,VALID,1.33086,
2011-03-21, 01:52:05,VALID,1002.44,VALID,0.5,INVALID,163.754,VALID,0,VALID,23.4894,VALID,124,VALID,1.73789,
2011-03-21, 01:53:05,VALID,1002.43,VALID,0,INVALID,163.762,VALID,0,VALID,23.4487,VALID,103,VALID,0.791406,
2011-03-21, 01:54:05,VALID,1002.43,VALID,0,INVALID,163.754,VALID,0,VALID,23.47,VALID,129,VALID,0.71875,
2011-03-21, 01:55:05,VALID,1002.4,VALID,0,INVALID,163.769,VALID,0,VALID,23.4487,VALID,77,VALID,0.608984,
2011-03-21, 01:56:05,VALID,1002.42,VALID,0,INVALID,163.762,VALID,0,VALID,23.47,VALID,136,VALID,0.24375,
2011-03-21, 01:57:05,VALID,1002.41,VALID,0,INVALID,163.769,VALID,0,VALID,23.4487,VALID,136,VALID,0.0148437,
2011-03-21, 01:58:05,VALID,1002.41,VALID,0,INVALID,163.784,VALID,0,VALID,23.4505,VALID,63,VALID,0.166797,
2011-03-21, 01:59:05,VALID,1002.42,VALID,0,INVALID,163.739,VALID,0,VALID,23.4293,VALID,63,VALID,0.536719,
2011-03-21, 02:00:05,VALID,1002.45,VALID,0.5,INVALID,163.754,VALID,0,VALID,23.4098,VALID,63,VALID,0.166406,
2011-03-21, 02:01:05,VALID,1002.43,VALID,0,INVALID,163.739,VALID,0,VALID,23.4311,VALID,63,VALID,0.278125,
2011-03-21, 02:02:05,VALID,1002.43,VALID,0,INVALID,163.762,VALID,0,VALID,23.4098,VALID,63,VALID,0.0105469,
2011-03-21, 02:03:05,VALID,1002.42,VALID,0,INVALID,163.731,VALID,0,VALID,23.4116,VALID,50,VALID,0,
2011-03-21, 02:04:05,VALID,1002.41,VALID,0,INVALID,163.754,VALID,0,VALID,23.3904,VALID,50,VALID,0,
2011-03-21, 02:05:05,VALID,1002.45,VALID,0,INVALID,163.769,VALID,0,VALID,23.3709,VALID,49,VALID,0,
2011-03-21, 02:06:05,VALID,1002.4,VALID,0,INVALID,163.769,VALID,0,VALID,23.3709,VALID,49,VALID,0,
2011-03-21, 02:07:05,VALID,1002.42,VALID,0,INVALID,163.754,VALID,0,VALID,23.3727,VALID,49,VALID,0,
2011-03-21, 02:08:05,VALID,1002.42,VALID,0,INVALID,163.777,VALID,0,VALID,23.3921,VALID,49,VALID,0,
2011-03-21, 02:09:05,VALID,1002.41,VALID,0,INVALID,163.769,VALID,0,VALID,23.3709,VALID,48,VALID,0,
2011-03-21, 02:10:05,VALID,1002.43,VALID,0,INVALID,163.754,VALID,0,VALID,23.3709,VALID,48,VALID,0,
2011-03-21, 02:11:05,VALID,1002.37,VALID,0,INVALID,163.792,VALID,0,VALID,23.3709,VALID,48,VALID,0,
2011-03-21, 02:12:05,VALID,1002.36,VALID,0,INVALID,163.762,VALID,0,VALID,23.3709,VALID,48,VALID,0,
2011-03-21, 02:13:05,VALID,1002.34,VALID,0,INVALID,163.777,VALID,0,VALID,23.4116,VALID,48,VALID,0,
2011-03-21, 02:14:05,VALID,1002.33,VALID,0,INVALID,163.762,VALID,0,VALID,23.3514,VALID,9,VALID,0.424609,
2011-03-21, 02:15:05,VALID,1002.32,VALID,0,INVALID,163.777,VALID,0,VALID,23.2541,VALID,6,VALID,0.549219,
2011-03-21, 02:16:05,VALID,1002.3,VALID,0,INVALID,163.777,VALID,0,VALID,23.1957,VALID,360,VALID,0.698047,
2011-03-21, 02:17:05,VALID,1002.27,VALID,0,INVALID,163.792,VALID,0,VALID,23.1179,VALID,359,VALID,0.628906,
2011-03-21, 02:18:05,VALID,1002.28,VALID,0,INVALID,163.777,VALID,0,VALID,23.0595,VALID,358,VALID,0.623047,
2011-03-21, 02:19:05,VALID,1002.3,VALID,0,INVALID,163.792,VALID,0,VALID,23.0401,VALID,1,VALID,0.414844,
2011-03-21, 02:20:05,VALID,1002.28,VALID,0,INVALID,163.784,VALID,0,VALID,23.0206,VALID,360,VALID,0.482812,
2011-03-21, 02:21:05,VALID,1002.31,VALID,0,INVALID,163.8,VALID,0,VALID,23.0012,VALID,360,VALID,0.385938,
2011-03-21, 02:22:05,VALID,1002.32,VALID,0.5,INVALID,163.777,VALID,0,VALID,22.9817,VALID,360,VALID,0.129688,
2011-03-21, 02:23:05,VALID,1002.34,VALID,0,INVALID,163.807,VALID,0,VALID,22.98,VALID,360,VALID,0,
2011-03-21, 02:24:05,VALID,1002.33,VALID,0,INVALID,163.8,VALID,0,VALID,23.0012,VALID,360,VALID,0.392578,
2011-03-21, 02:25:05,VALID,1002.33,VALID,0,INVALID,163.777,VALID,0,VALID,23.0401,VALID,360,VALID,0.226563,
2011-03-21, 02:26:05,VALID,1002.3,VALID,0,INVALID,163.762,VALID,0,VALID,23.0401,VALID,360,VALID,0.170703,
2011-03-21, 02:27:05,VALID,1002.32,VALID,0,INVALID,163.777,VALID,0,VALID,23.0401,VALID,360,VALID,0,
2011-03-21, 02:28:05,VALID,1002.31,VALID,0,INVALID,163.8,VALID,0,VALID,23.0401,VALID,360,VALID,0,
2011-03-21, 02:29:05,VALID,1002.32,VALID,0,INVALID,163.777,VALID,0,VALID,23.0595,VALID,360,VALID,0,
2011-03-21, 02:30:05,VALID,1002.33,VALID,0.5,INVALID,163.769,VALID,0,VALID,23.079,VALID,360,VALID,0,
2011-03-21, 02:31:05,VALID,1002.3,VALID,0,INVALID,163.777,VALID,0,VALID,23.1586,VALID,360,VALID,0.296875,
2011-03-21, 02:32:05,VALID,1002.27,VALID,1,INVALID,163.784,VALID,0,VALID,23.178,VALID,360,VALID,0.804297,
2011-03-21, 02:33:05,VALID,1002.25,VALID,0,INVALID,163.784,VALID,0,VALID,23.1957,VALID,360,VALID,0.553516,
2011-03-21, 02:34:05,VALID,1002.25,VALID,0.5,INVALID,163.777,VALID,0,VALID,23.2152,VALID,360,VALID,0.414063,
2011-03-21, 02:35:05,VALID,1002.27,VALID,0,INVALID,163.792,VALID,0,VALID,23.2541,VALID,360,VALID,0.225391,
2011-03-21, 02:36:05,VALID,1002.28,VALID,0.5,INVALID,163.762,VALID,0,VALID,23.2541,VALID,360,VALID,0.282813,
2011-03-21, 02:37:05,VALID,1002.23,VALID,0,INVALID,163.769,VALID,0,VALID,23.2754,VALID,360,VALID,0,
2011-03-21, 02:38:05,VALID,1002.21,VALID,0,INVALID,163.792,VALID,0,VALID,23.2931,VALID,360,VALID,0,
2011-03-21, 02:39:05,VALID,1002.22,VALID,0,INVALID,163.792,VALID,0,VALID,23.2931,VALID,360,VALID,0,
2011-03-21, 02:40:05,VALID,1002.26,VALID,0,INVALID,163.777,VALID,0,VALID,23.3125,VALID,360,VALID,0,
2011-03-21, 02:41:05,VALID,1002.22,VALID,0.5,INVALID,163.762,VALID,0,VALID,23.3532,VALID,6,VALID,0,
2011-03-21, 02:42:05,VALID,1002.19,VALID,0,INVALID,163.746,VALID,0,VALID,23.332,VALID,10,VALID,0,
2011-03-21, 02:43:05,VALID,1002.19,VALID,0.5,INVALID,163.777,VALID,0,VALID,23.3532,VALID,13,VALID,0,
2011-03-21, 02:44:05,VALID,1002.16,VALID,0,INVALID,163.792,VALID,0,VALID,23.3514,VALID,13,VALID,0.762109,
2011-03-21, 02:45:05,VALID,1002.18,VALID,0.5,INVALID,163.746,VALID,0,VALID,23.3921,VALID,13,VALID,0.827344,
2011-03-21, 02:46:05,VALID,1002.22,VALID,0,INVALID,163.754,VALID,0,VALID,23.3727,VALID,11,VALID,0.795313,
2011-03-21, 02:47:05,VALID,1002.22,VALID,0,INVALID,163.762,VALID,0,VALID,23.3727,VALID,1,VALID,0.907031,
2011-03-21, 02:48:05,VALID,1002.21,VALID,0.5,INVALID,163.762,VALID,0,VALID,23.3939,VALID,357,VALID,0.895312,
2011-03-21, 02:49:05,VALID,1002.22,VALID,0,INVALID,163.754,VALID,0,VALID,23.3532,VALID,357,VALID,0.602734,
2011-03-21, 02:50:05,VALID,1002.23,VALID,0,INVALID,163.769,VALID,0,VALID,23.332,VALID,358,VALID,0.440234,
2011-03-21, 02:51:05,VALID,1002.21,VALID,0,INVALID,163.784,VALID,0,VALID,23.3532,VALID,358,VALID,0.211719,
2011-03-21, 02:52:05,VALID,1002.19,VALID,0,INVALID,163.769,VALID,0,VALID,23.3514,VALID,358,VALID,0.244141,
2011-03-21, 02:53:05,VALID,1002.18,VALID,0,INVALID,163.777,VALID,0,VALID,23.3532,VALID,353,VALID,0.569141,
2011-03-21, 02:54:05,VALID,1002.16,VALID,0,INVALID,163.777,VALID,0,VALID,23.3532,VALID,349,VALID,0.0601562,
2011-03-21, 02:55:05,VALID,1002.13,VALID,0,INVALID,163.769,VALID,0,VALID,23.3514,VALID,349,VALID,0.400781,
2011-03-21, 02:56:05,VALID,1002.15,VALID,0,INVALID,163.762,VALID,0,VALID,23.332,VALID,349,VALID,0.291406,
2011-03-21, 02:57:05,VALID,1002.1,VALID,0.5,INVALID,163.777,VALID,0,VALID,23.332,VALID,346,VALID,0.263281,
2011-03-21, 02:58:05,VALID,1002.1,VALID,0,INVALID,163.762,VALID,0,VALID,23.332,VALID,348,VALID,0.802344,
2011-03-21, 02:59:05,VALID,1002.1,VALID,0,INVALID,163.784,VALID,0,VALID,23.2931,VALID,348,VALID,0.675781,
2011-03-21, 03:00:05,VALID,1002.08,VALID,0,INVALID,163.762,VALID,0,VALID,23.2541,VALID,347,VALID,0.50625,
2011-03-21, 03:01:05,VALID,1002.1,VALID,0,INVALID,163.769,VALID,0,VALID,23.2736,VALID,349,VALID,0.482812,
2011-03-21, 03:02:05,VALID,1002.09,VALID,0,INVALID,163.784,VALID,0,VALID,23.2559,VALID,339,VALID,0.407813,
2011-03-21, 03:03:05,VALID,1002.1,VALID,0,INVALID,163.754,VALID,0,VALID,23.2364,VALID,348,VALID,0.472266,
2011-03-21, 03:04:05,VALID,1002.09,VALID,0,INVALID,163.769,VALID,0,VALID,23.2152,VALID,346,VALID,0.213672,
2011-03-21, 03:05:05,VALID,1002.1,VALID,0,INVALID,163.769,VALID,0,VALID,23.2152,VALID,346,VALID,0,
2011-03-21, 03:06:05,VALID,1002.07,VALID,0,INVALID,163.777,VALID,0,VALID,23.2152,VALID,346,VALID,0,
2011-03-21, 03:07:05,VALID,1002.06,VALID,0,INVALID,163.8,VALID,0,VALID,23.194,VALID,294,VALID,0.1375,
2011-03-21, 03:08:05,VALID,1002.06,VALID,0,INVALID,163.777,VALID,0,VALID,23.2347,VALID,294,VALID,0.133594,
2011-03-21, 03:09:05,VALID,1002.04,VALID,0,INVALID,163.762,VALID,0,VALID,23.2559,VALID,295,VALID,0.391406,
2011-03-21, 03:10:05,VALID,1002.05,VALID,0,INVALID,163.762,VALID,0,VALID,23.1957,VALID,359,VALID,0.741406,
2011-03-21, 03:11:05,VALID,1002.06,VALID,0.5,INVALID,163.762,VALID,0,VALID,23.178,VALID,350,VALID,0.625781,
2011-03-21, 03:12:05,VALID,1002.05,VALID,0,INVALID,163.769,VALID,0,VALID,23.1374,VALID,350,VALID,0.917188,
2011-03-21, 03:13:05,VALID,1002.05,VALID,0,INVALID,163.777,VALID,0,VALID,23.1586,VALID,355,VALID,0.930078,
2011-03-21, 03:14:05,VALID,1002.06,VALID,0,INVALID,163.777,VALID,0,VALID,23.0984,VALID,341,VALID,0.522656,
2011-03-21, 03:15:05,VALID,1002.08,VALID,0,INVALID,163.807,VALID,0,VALID,23.0578,VALID,346,VALID,1.17383,
2011-03-21, 03:16:05,VALID,1002.09,VALID,0,INVALID,163.792,VALID,0,VALID,23.0595,VALID,359,VALID,0.976172,
2011-03-21, 03:17:05,VALID,1002.04,VALID,0,INVALID,163.754,VALID,0.100563,VALID,23.0595,VALID,357,VALID,0.723437,
2011-03-21, 03:18:05,VALID,1002.07,VALID,0,INVALID,163.784,VALID,0,VALID,23.0401,VALID,349,VALID,1.2,
2011-03-21, 03:19:05,VALID,1002.05,VALID,0,INVALID,163.792,VALID,0,VALID,23.0401,VALID,352,VALID,0.836719,
2011-03-21, 03:20:05,VALID,1002,VALID,0.5,INVALID,163.784,VALID,0,VALID,23.0613,VALID,355,VALID,0.228516,
2011-03-21, 03:21:05,VALID,1001.97,VALID,0,INVALID,163.807,VALID,0,VALID,23.0206,VALID,354,VALID,0.625391,
2011-03-21, 03:22:05,VALID,1001.96,VALID,0,INVALID,163.8,VALID,0,VALID,23.0206,VALID,334,VALID,0.379687,
2011-03-21, 03:23:05,VALID,1001.93,VALID,0,INVALID,163.777,VALID,0,VALID,23.0012,VALID,338,VALID,0.445703,
2011-03-21, 03:24:05,VALID,1001.88,VALID,0,INVALID,163.746,VALID,0.100563,VALID,23.0206,VALID,333,VALID,0.574609,
2011-03-21, 03:25:05,VALID,1001.88,VALID,0,INVALID,163.777,VALID,0,VALID,23.0206,VALID,20,VALID,0.352344,
2011-03-21, 03:26:05,VALID,1001.83,VALID,0,INVALID,163.8,VALID,0,VALID,22.9817,VALID,336,VALID,0.954687,
2011-03-21, 03:27:05,VALID,1001.76,VALID,0,INVALID,163.792,VALID,0,VALID,22.9817,VALID,350,VALID,0.915625,
2011-03-21, 03:28:05,VALID,1001.77,VALID,0.5,INVALID,163.769,VALID,0,VALID,22.964,VALID,2,VALID,0.805078,
2011-03-21, 03:29:05,VALID,1001.72,VALID,0,INVALID,163.815,VALID,0,VALID,22.9622,VALID,353,VALID,0.622266,
2011-03-21, 03:30:05,VALID,1001.71,VALID,0,INVALID,163.777,VALID,0,VALID,22.9622,VALID,345,VALID,0.960156,
2011-03-21, 03:31:05,VALID,1001.7,VALID,0,INVALID,163.815,VALID,0,VALID,22.964,VALID,343,VALID,0.460938,
2011-03-21, 03:32:05,VALID,1001.69,VALID,0,INVALID,163.777,VALID,0,VALID,22.964,VALID,343,VALID,0.257813,
2011-03-21, 03:33:05,VALID,1001.65,VALID,0,INVALID,163.8,VALID,0,VALID,22.964,VALID,346,VALID,0.554688,
2011-03-21, 03:34:05,VALID,1001.64,VALID,0,INVALID,163.815,VALID,0,VALID,22.964,VALID,350,VALID,0.638672,
2011-03-21, 03:35:05,VALID,1001.63,VALID,0.5,INVALID,163.792,VALID,0,VALID,22.9445,VALID,352,VALID,0.660937,
2011-03-21, 03:36:05,VALID,1001.63,VALID,0,INVALID,163.792,VALID,0,VALID,22.9445,VALID,355,VALID,0.648438,
2011-03-21, 03:37:05,VALID,1001.6,VALID,0,INVALID,163.784,VALID,0,VALID,22.9251,VALID,355,VALID,0.349219,
2011-03-21, 03:38:05,VALID,1001.57,VALID,0,INVALID,163.784,VALID,0,VALID,22.9657,VALID,355,VALID,0.555859,
2011-03-21, 03:39:05,VALID,1001.57,VALID,0,INVALID,163.784,VALID,0,VALID,22.9251,VALID,355,VALID,0.451953,
2011-03-21, 03:40:05,VALID,1001.54,VALID,0,INVALID,163.784,VALID,0,VALID,22.8844,VALID,355,VALID,0.519141,
2011-03-21, 03:41:05,VALID,1001.51,VALID,0,INVALID,163.792,VALID,0,VALID,22.9073,VALID,353,VALID,0.440234,
2011-03-21, 03:42:05,VALID,1001.5,VALID,0,INVALID,163.784,VALID,0,VALID,22.8861,VALID,353,VALID,0.228906,